Regional Weather Roundup
Issued by NWS

Home | Current Version | Previous Version | Text Only | Print | Product List | Glossary Off
Versions: 1 2 3 4 5 6 7 8 9 10 11 12 13 14 15 16 17 18 19 20 21 22 23 24 25 26 27 28

000
ASUS45 KGTF 261010
RWRMT
MONTANA HOURLY WEATHER ROUNDUP
NATIONAL WEATHER SERVICE GREAT FALLS MT
400 AM MDT SUN APR 26 2015

NOTE: "FAIR" INDICATES FEW OR NO CLOUDS BELOW 12000 FEET WITH NO
SIGNIFICANT WEATHER AND/OR OBSTRUCTIONS TO VISIBILITY.

MTZ001>007-043-261100-
WEST OF THE DIVIDE

CITY           SKY/WX    TMP DP  RH WIND       PRES   REMARKS
KALISPELL      PTSUNNY   41  28  60 N14       29.95R
MISSOULA       LGT RAIN  39  35  86 NW7       29.96R
BUTTE          LGT SNOW  33  32  96 W5        29.86R FOG
DEER LODGE       N/A     37  27  65 N12G17    29.94R WCI  30
EUREKA           N/A     36  32  87 CALM      30.01R
HAMILTON         N/A     37  36  93 N8        29.93R WCI  31
LIBBY            N/A     36  34  93 CALM      30.02R
$$

MTZ008-052>055-261100-
SOUTHWEST MONTANA

CITY           SKY/WX    TMP DP  RH WIND       PRES   REMARKS
BOZEMAN        CLOUDY    42  34  73 W12       29.84R
DILLON         CLOUDY    36  32  85 NE14      29.81S WCI  27
$$

MTZ009-010-012-014-046-048-049-054-261100-
EAST SLOPES AND CENTRAL MONTANA

CITY           SKY/WX    TMP DP  RH WIND       PRES   REMARKS
CUT BANK       CLOUDY    29  23  78 N13       30.05R WCI  19
GREAT FALLS    CLOUDY    32  26  78 N12       30.03R WCI  23
MALMSTROM AFB  CLOUDY    32  29  87 N10       30.04R WCI  24
HELENA         CLOUDY    39  29  67 N17       29.93R WCI  30
$$

MTZ011-013-016-021-045-047-050-051-261100-
NORTH CENTRAL MONTANA

CITY           SKY/WX    TMP DP  RH WIND       PRES   REMARKS
HAVRE          CLOUDY    34  27  75 NW10      30.04R WCI  26
LEWISTOWN      CLOUDY    33  30  88 W12       29.98R WCI  24
CHINOOK          N/A     36  28  75 W16       30.03R WCI  26
FORT BENTON      N/A     36  28  75 NW7       30.06S WCI  30
$$

MTZ017>020-022>042-056>058-061-062-261100-
EASTERN PLAINS

CITY           SKY/WX    TMP DP  RH WIND       PRES   REMARKS
BAKER          PTCLDY    34  32  92 S6        29.96R WCI  29
BILLINGS       CLOUDY    39  35  86 N8        29.92R
GLASGOW        CLOUDY    38  34  85 NW8       29.97R
JORDAN           N/A     40  39  97 N9        29.95R
LIVINGSTON     LGT RAIN  41  36  82 E16       29.87R
MILES CITY     FOG       34  34 100 NW3       29.95R VSB 3/4
SIDNEY         CLOUDY    36  32  87 W3        29.99R
WOLF POINT     CLOUDY    39  36  89 W5        29.98R
BIG TIMBER       N/A     39  36  87 E5        29.92R
FORSYTH          N/A     36  36 100 CALM      29.95R
PLENTYWOOD       N/A     37  36  93 W8        29.95R WCI  31
POPLAR           N/A     37  37 100 SW3       29.99R
$$

REGIONAL REPORTS...DAKOTAS

CITY           SKY/WX    TMP DP  RH WIND       PRES   REMARKS
WILLISTON      CLOUDY    37  35  92 NW13      29.97R WCI  29
MINOT          LGT RAIN  47  43  86 SE7       29.94R FOG
DICKINSON      CLOUDY    43  40  89 NW6       29.93R
BEACH          FOG       30  30 100 N8        29.95F VSB<1/4 WCI  23
CROSBY         CLOUDY    39  39 100 W13       29.95R WCI  32
WATFORD CITY   FAIR      37  36  93 NW8       29.94R WCI  31
BISMARCK       CLOUDY    46  45  96 E6        29.97R FOG
GRAND FORKS    CLEAR     38  29  70 SE8       30.04R
FARGO          PTCLDY    40  26  57 S6        30.04R
BUFFALO SD       N/A     43  40  89 CALM      29.87R
RAPID CITY     CLOUDY    43  41  93 N13       29.89R
$$

REGIONAL REPORTS...WYOMING/IDAHO/WASHINGTON

CITY           SKY/WX    TMP DP  RH WIND       PRES   REMARKS
GILLETTE       CLOUDY    39  34  82 N8        29.90R
SHERIDAN       CLOUDY    40  34  79 CALM      29.92R
BUFFALO WY     CLOUDY    38  33  82 CALM      29.90F
CODY           CLOUDY    41  28  60 NW6       29.85S
YELLOWSTONE LA   N/A     31  28  89 CALM      29.82S
IDAHO FALLS    LGT RAIN  40  37  89 SW14      29.79R
SALMON         CLOUDY    37  36  93 CALM      29.87R
BOISE          CLEAR     38  28  67 NW7       29.96R
SPOKANE        PTCLDY    36  34  92 NE5       30.02R
$$

REGIONAL REPORTS...ALBERTA

CITY           SKY/WX    TMP DP  RH WIND       PRES   REMARKS
EDMONTON       CLEAR     25  21  86 SW2       30.09R
CALGARY        PTCLDY    25  21  86 N6        30.06S WCI  18
LETHBRIDGE     CLOUDY    32  25  74 NW13      30.08S WCI  22
MEDICINE HAT   CLOUDY    32  32 100 NW10G17   30.05R WCI  24
$$

REGIONAL REPORTS...SASKATCHEWAN

CITY           SKY/WX    TMP DP  RH WIND       PRES   REMARKS
SWIFT CURRENT  CLOUDY    28  28 100 NW23      29.93R WCI  14
REGINA         CLOUDY    36  34  93 SW18      29.88R WCI  25
SASKATOON      SNOW      32  30  93 N16       29.90S VSB 1/2 WCI  21
$$



USA.gov is the U.S. government's official web portal to all federal, state and local government web resources and services.